Hourly Data Report for October 01, 2017

All times are specified in Local Standard Time (LST). Add 1 hour to adjust for Daylight Saving Time where and when it is observed.

SWAN RIVER RCS
MANITOBA

52°06'53.900" N
101°13'58.500" W
334.80 m
504K80K
71443
WEQ

Download Data

Hourly Data (October 2017)
Hourly Data Report for October 1, 2017
Temp Definition
°C
Dew Point Temp Definition
°C
Rel Hum Definition
%
Wind Dir Definition
10's deg

Wind Spd Definition
km/h
Visibility Definition
km
Stn Press Definition
kPa
Hmdx Definition


Wind Chill Definition


Weather Definition


TIME
00:00 16.0 10.3 69 12 5   96.29     LegendNANA
01:00 14.8 10.7 76 6 6   96.27     LegendNANA
02:00 12.3 9.5 83 36 2   96.25     LegendNANA
03:00 10.4 8.9 90 35 3   96.19     LegendNANA
04:00 11.0 9.6 92 34 5   96.17     LegendNANA
05:00 9.3 8.5 94 2 4   96.14     LegendNANA
06:00 8.9 8.3 96 1 6   96.13     LegendNANA
07:00 8.1 7.8 98 2 6   96.12     LegendNANA
08:00 10.1 10.1 100 36 2   96.11     LegendNANA
09:00 14.0 12.0 88 3 10   96.09     LegendNANA
10:00 17.1 12.0 72 5 13   96.10     LegendNANA
11:00 17.3 12.0 71 5 14   96.07     LegendNANA
12:00 18.6 12.1 66 5 14   96.07     LegendNANA
13:00 21.6 12.1 55 21 6   96.01     LegendNANA
14:00 21.5 11.9 54 32 4   95.97     LegendNANA
15:00 19.8 12.2 62 7 20   95.95     LegendNANA
16:00 17.7 12.3 71 6 19   95.96     LegendNANA
17:00 16.9 12.5 75 6 18   95.99     LegendNANA
18:00 15.8 12.2 79 5 12   96.04     LegendNANA
19:00 13.9 11.6 86 5 12   96.09     LegendNANA
20:00 12.5 11.0 90 4 10   96.09     LegendNANA
21:00 10.3 9.4 94 1 6   96.15     LegendNANA
22:00 10.8 10.5 98 4 2   96.16     LegendNANA
23:00 11.4 11.1 98 1 6   96.14     LegendNANA

Notes on Data Quality.

Legend

  • E = Estimated
  • M = Missing
  • NA = Not Available
  • ‡ = Partner data that is not subject to review by the National Climate Archives
Date modified: